Regional Weather Roundup
Issued by NWS

Home | Current Version | Previous Version | Graphics & Text | Print | Product List | Glossary On
Versions: 1 2 3 4 5 6 7 8 9 10 11 12 13 14 15 16 17 18 19 20 21 22 23 24 25 26 27 28 29 30 31 32 33 34 35 36 37 38 39 40 41 42 43 44 45 46 47 48 49 50
000
ASUS43 KMKX 271521
RWRWI

WISCONSIN REGIONAL WEATHER ROUNDUP
NATIONAL WEATHER SERVICE MILWAUKEE/SULLIVAN WI
1000 AM CDT TUE SEP 27 2016

NOTE: "FAIR" INDICATES FEW OR NO CLOUDS BELOW 12,000 FEET WITH NO
SIGNIFICANT WEATHER AND/OR OBSTRUCTIONS TO VISIBILITY.

WIZ001-002-006>008-014>016-023>028-271600-
NORTHWEST WISCONSIN

CITY           SKY/WX    TMP DP  RH WIND       PRES   REMARKS
SUPERIOR ARPT  CLOUDY    53  44  73 NW16G23   29.70S
ASHLAND        LGT RAIN  50  47  89 W8        29.66R
HAYWARD        CLOUDY    51  43  74 VRB5      29.70R
SIREN          CLOUDY    51  43  74 W12G17    29.75R
CUMBERLAND     CLOUDY    50  41  71 W17       29.74S
RICE LAKE      CLOUDY    52  42  70 W13G18    29.75S
CHETEK         NOT AVBL
LADYSMITH      CLOUDY    51  46  82 W10       29.73R
EAU CLAIRE     CLOUDY    53  43  68 W13G22    29.75S
MENOMONIE      CLOUDY    54  43  66 W16G22    29.77S
NEW RICHMOND   MOSUNNY   53  41  64 W16G28    29.78S
OSCEOLA        PTSUNNY   53  42  68 W16G26    29.81S
$$

WIZ003>005-009-010-017-018-271600-
NORTH CENTRAL WISCONSIN

CITY           SKY/WX    TMP DP  RH WIND       PRES   REMARKS
MANITOWISH WTR NOT AVBL
ARBOR VITAE    CLOUDY    50  48  92 NW10G20   29.62S
WOODRUFF       CLOUDY    50  48  92 NW10G20   29.62S
RHINELANDER    CLOUDY    50  47  89 W15       29.64R
EAGLE RIVER    CLOUDY    48  47  95 W12G20    29.60S FOG
LAND O LAKES   LGT RAIN  48  46  92 NW10G17   29.61S
PHILLIPS       RAIN      47  47  98 W8        29.66S
TOMAHAWK       LGT RAIN  48  46  91 W12G17    29.66S
MEDFORD        CLOUDY    48  48 100 W16G22    29.69S
MERRILL        CLOUDY    49  47  93 W13       29.67S
$$

WIZ029-030-035-036-043>047-271600-
CENTRAL WISCONSIN

CITY           SKY/WX    TMP DP  RH WIND       PRES   REMARKS
WAUSAU         CLOUDY    51  45  79 W21G26    29.67R
MOSINEE        CLOUDY    50  46  87 W14G21    29.70R
MARSHFIELD     CLOUDY    52  42  69 W18G26    29.71S
STEVENS POINT  CLOUDY    51  43  74 W9G21     29.70S
WAUPACA        PTSUNNY   56  44  65 W13G21    29.70S
WAUTOMA        CLOUDY    53  43  68 W10G21    29.73S
WISC RAPIDS    CLOUDY    53  44  71 W14       29.73S
CAMP DOUGLAS   PTSUNNY   54  43  66 W17G25    29.75S
$$

WIZ011>013-019>022-031-037>040-048>050-271600-
NORTHEAST WISCONSIN

CITY           SKY/WX    TMP DP  RH WIND       PRES   REMARKS
ANTIGO         DRIZZLE   47  47  97 W13G18    29.65R
SHAWANO        CLOUDY    55  46  69 W10G17    29.66S
OCONTO         NOT AVBL
STURGEON BAY   CLOUDY    56  46  69 W16G24    29.62S
GREEN BAY      CLOUDY    55  47  74 W12G18    29.66S
MANITOWOC      CLOUDY    55  44  66 MISG      29.67F
APPLETON       PTSUNNY   55  43  62 W15G24    29.67S
CLINTONVILLE   NOT AVBL
OSHKOSH        CLOUDY    54  42  64 W12G22    29.70S
$$

WIZ032>034-041-042-053>061-271600-
SOUTHWEST WISCONSIN

CITY           SKY/WX    TMP DP  RH WIND       PRES   REMARKS
LA CROSSE      SUNNY     59  43  55 W15       29.80S
SPARTA         PTSUNNY   53  42  66 W13G21    29.78S
VIROQUA        SUNNY     54  40  58 W15G21    29.80S
BOSCOBEL       SUNNY     58  41  53 W15G22    29.83F
PRAIRIE DU CHI SUNNY     58  38  45 W14G23    29.84F
PLATTEVILLE    SUNNY     58  42  55 W17G23    29.85S
$$

WIZ056-057-062-063-064-067-068-271600-
SOUTH CENTRAL WISCONSIN

CITY           SKY/WX    TMP DP  RH WIND       PRES   REMARKS
REEDSBURG      NOT AVBL
BARABOO/DELLS  CLOUDY    53  39  59 W12G21    29.77S
LONE ROCK      SUNNY     57  41  55 W13G22    29.80F
MINERAL POINT  SUNNY     57  37  47 W17G29    29.82S
MADISON        PTSUNNY   55  39  54 W14G22    29.77F
MIDDLETON      NOT AVBL
WATERTOWN      SUNNY     55  41  58 W16G22    29.75F
MONROE         SUNNY     55  37  50 W22G30    29.81F
JANESVILLE     SUNNY     61  37  41 W18G25    29.79F
$$

WIZ051-052-058>065-066-070>072-271600-
SOUTHEAST WISCONSIN

CITY           SKY/WX    TMP DP  RH WIND       PRES   REMARKS
MILWAUKEE      MOSUNNY   59  40  49 W13G28    29.76S
WAUKESHA       MOSUNNY   55  39  54 W12G23    29.77S
MILWAUKEE/TIMM SUNNY     55  37  50 W22G30    29.75S
RACINE         SUNNY     59  40  49 W20G26    29.77S
BURLINGTON     SUNNY     58  38  48 W16G26    29.77F
KENOSHA        SUNNY     59  39  47 W20G31    29.77F
FOND DU LAC    CLOUDY    54  42  64 W14G25    29.72R
SHEBOYGAN      CLOUDY    54  42  64 W15       29.69F
WEST BEND      CLOUDY    54  41  62 W15       29.72F
JUNEAU         CLOUDY    53  40  60 W13G23    29.75S
$$

LSZ147-162-271600-
LAKE SUPERIOR

STATION/POSITION TIME  TEMP    WIND        PRES    WAVE
                       AIR SEA DIR/SP/G            HT/PER
                 (UTC) (F)     (DEG/KT/KT) (MB)    (FT/S)
W MID LAKE BUOY  1450   50 47  290/ 17/ 21 1001.0R   5/ 5
DEVILS ISLAND    1500   51     280/ 16/ 18 1003.5R
PORT WING        1305   53     270/ 20/ 25 1004.4
SAXON HARBOR     1400   51     260/  9/ 14 1003.7
$$

LMZ867-665-643>646-271600-
LAKE MICHIGAN

STATION/POSITION TIME  TEMP    WIND        PRES    WAVE
                       AIR SEA DIR/SP/G            HT/PER
                 (UTC) (F)     (DEG/KT/KT) (MB)    (FT/S)
CHAMBERS ISLAND  1400   54     230/  8/ 14 1001.7S
N MID LAKE BUOY  1450   57 66  260/ 23/ 27 1000.2F   5/ 5
NORTHPORT PIER   1400   54     250/  4/ 11 1001.7S
SISTER BAY       1338   57     260/ 21/ 25   N/A
KEWAUNEE LAKESHO 1400   54     270/  9/ 14 1003.6R
SHEBOYGAN LAKESH 1500   54     270/ 15/ 19 1005.3R
PORT WASHINGTON  1440   57     280/ 11/ 22 1007.1S
ATWATER BUOY     1500   57 55  240/ 19/ 25 1006.9F
MILWAUKEE LAKESH 1410   56     260/ 15/ 19   N/A
S MID LAKE BUOY  1450   59 70  260/ 25/ 31 1006.8R   5/ 5
KENOSHA   LAKESH 1500   59     280/ 18/ 27 1007.8F
$$

TC  - TEMPERATURE IN CELSIUS
VSB - VISIBILITY IN STATUTE MILES
WCI - WIND CHILL INDEX
HX  - HEAT INDEX





USA.gov is the U.S. government's official web portal to all federal, state and local government web resources and services.